Flag for Switzerland Weather past 2 weeks in Solothurn, Solothurn, Switzerland

Now
68 °F

Mild.


Feels Like: 68 °F
Forecast: 39 / 66 °F
Wind: 5 mph from East

Location: Grenchen


UV Index: 0 (Low)

Visibility: N/A


Pressure: 29.96 "Hg

Humidity: 49%

Dew point: 48 °F

Location of SolothurnLocation

Historic Weather in Solothurn

°F

Solothurn temperature yesterday

Maximum temperature yesterday: 70 °F (at 5:00 PM)
Minimum temperature yesterday: 47 °F (at 6:00 AM)
Average temperature yesterday: 59 °F

Past Weeks' High & Low Weather Summary

 TemperatureHumidityPressure
High70 °F (Apr 23, 5:00 PM)98% (Apr 19, 2:00 AM)30.34 "Hg (Apr 19, 2:00 AM)
Low31 °F (Apr 16, 7:00 AM)27% (Apr 16, 4:00 PM)29.60 "Hg (Apr 20, 6:00 PM)
Average51 °F67%30.03 "Hg
* Reported Apr 9 1:00 PM — Apr 24 1:00 PM, Solothurn, Weather by CustomWeather, © 2014

Note: Actual official high and low records may vary slightly from our data, if they occured in-between our weather recording intervals... More about our weather records

Advertising

Historic Weather Conditions — Data for Previous 24 hours

 ConditionsComfort  
Time TempWeatherWind HumidityBarometerVisibility
1:00 PM
Apr 24
66 °FMild.2 mph56%30.00 "HgN/A
12:00 PM62 °FRefreshingly cool.2 mph59%30.04 "HgN/A
11:00 AM59 °FCool.3 mph72%30.08 "HgN/A
10:00 AM54 °FCool.5 mph83%30.11 "HgN/A
9:00 AM52 °FCool.No wind89%30.11 "HgN/A
8:00 AM50 °FCool.No wind92%30.12 "HgN/A
7:00 AM48 °FCool.2 mph95%30.12 "HgN/A
6:00 AM47 °FCool.2 mph96%30.11 "HgN/A
5:00 AM48 °FCool.2 mph94%30.11 "HgN/A
4:00 AM51 °FCool.3 mph92%30.11 "HgN/A
3:00 AM52 °FCool.3 mph91%30.12 "HgN/A
2:00 AM52 °FCool.3 mph92%30.12 "HgN/A
1:00 AM54 °FCool.5 mph89%30.13 "HgN/A
12:00 AM56 °FCool.2 mph77%30.11 "HgN/A
11:00 PM
Apr 23
59 °FCool.5 mph67%30.10 "HgN/A
10:00 PM61 °FRefreshingly cool.8 mph58%30.07 "HgN/A
9:00 PM62 °FRefreshingly cool.3 mph56%30.03 "HgN/A
8:00 PM65 °FMild.9 mph48%29.99 "HgN/A
7:00 PM67 °FMild.12 mph47%29.97 "HgN/A
6:00 PM68 °FMild.13 mph47%29.97 "HgN/A
5:00 PM70 °FMild.13 mph44%29.97 "HgN/A
4:00 PM70 °FMild.12 mph40%29.98 "HgN/A
3:00 PM69 °FMild.12 mph43%30.00 "HgN/A
2:00 PM68 °FMild.9 mph50%30.02 "HgN/A
Weather by CustomWeather, © 2014

See weather overview